Regional Weather Roundup
Issued by NWS

Home | Current Version | Previous Version | Text Only | Print | Product List | Glossary Off
Versions: 1 2 3 4 5 6 7 8 9 10 11 12 13 14 15 16 17 18 19 20 21 22 23 24 25 26 27 28 29 30 31 32 33 34 35 36 37 38 39 40 41 42 43 44 45 46 47 48 49 50

000
ASUS43 KOAX 220810
RWRNE

WEATHER ROUNDUP FOR NEBRASKA
NATIONAL WEATHER SERVICE OMAHA NE
300 AM CDT MON SEP 22 2014

NOTES: SATELLITE DATA IS BEING USED TO AUGMENT CLOUD COVER ABOVE
       12000 FEET.
       "FAIR" INDICATES FEW OR NO CLOUDS BELOW 12,000 FEET WITH NO
       SIGNIFICANT WEATHER AND/OR OBSTRUCTIONS TO VISIBILITY.

  * THESE STATIONS DO NOT REPORT WEATHER SUCH AS RAIN...SNOW OR FOG.

NEZ001>004-019>022-054>056-220900-
NEBRASKA PANHANDLE

CITY           SKY/WX    TMP DP  RH WIND       PRES   REMARKS
SCOTTSBLUFF    PTCLDY    56  44  64 E12       30.23F
ALLIANCE       MOCLDY    53  41  63 S12       30.25F
CHADRON        MOCLDY    63  40  42 S14G25    30.18F
KIMBALL        PTCLDY    57  40  53 S15G21    30.26F
SIDNEY         PTCLDY    59  39  47 S14       30.28F
$$

NEZ057>060-069>072-079>082-220900-
SOUTHWEST NEBRASKA

CITY           SKY/WX    TMP DP  RH WIND       PRES   REMARKS
NORTH PLATTE   PTCLDY    48  43  82 E6        30.30S
IMPERIAL       CLOUDY    59  41  51 SE7       30.29F
LEXINGTON      PTCLDY    47  45  91 CALM      30.31S
MCCOOK         MOCLDY    55  44  66 NE3       30.30S
OGALLALA       PTCLDY    56  45  64 SE3       30.28F
$$

NEZ005>010-023>029-035>040-094-220900-
NORTH CENTRAL NEBRASKA

CITY           SKY/WX    TMP DP  RH WIND       PRES   REMARKS
VALENTINE      CLEAR     51  42  71 S12       30.27F
AINSWORTH      CLEAR     45  40  84 S8        30.29S
BROKEN BOW     CLEAR     42  39  89 CALM      30.30F
O`NEILL        CLEAR     44  43  98 S5        30.29F
ORD            CLEAR     42  39  89 CALM      30.30S
THEDFORD       PTCLDY    54  42  65 S6        30.29F
$$

NEZ041-046>049-061>064-073>077-083>087-220900-
SOUTH CENTRAL NEBRASKA

CITY           SKY/WX    TMP DP  RH WIND       PRES   REMARKS
GRAND ISLAND   CLEAR     50  44  80 CALM      30.31F
AURORA         CLEAR     46  43  90 CALM      30.30F
HASTINGS       CLEAR     52  43  71 SE3       30.30F
HEBRON         CLEAR     45  43  91 CALM      30.30F
HOLDREGE       CLEAR     47  42  82 CALM      30.30F
KEARNEY *      CLEAR     48  43  81 CALM      30.31F
YORK           CLEAR     46  45  93 CALM      30.30F
$$

NEZ011>018-030>034-042>045-220900-
NORTHEAST NEBRASKA

CITY           SKY/WX    TMP DP  RH WIND       PRES   REMARKS
NORFOLK        CLEAR     43  40  89 CALM      30.29F
ALBION         CLEAR     43  40  90 CALM      30.30F
BLAIR          CLEAR     53  47  78 CALM      30.29S
COLUMBUS *     CLEAR     45  41  87 CALM      30.30F
FREMONT        CLEAR     49  47  93 CALM      30.30S
TEKAMAH        CLEAR     45  43  93 CALM      30.29S
WAYNE          CLEAR     42  41  96 CALM      30.29F
$$

NEZ050>053-065>068-078-088>093-220900-
SOUTHEAST NEBRASKA

CITY           SKY/WX    TMP DP  RH WIND       PRES   REMARKS
LINCOLN        CLEAR     48  45  89 N5        30.30S
OMAHA EPPLEY   CLEAR     51  49  92 CALM      30.30R
BEATRICE       CLEAR     45  43  94 CALM      30.29F
FALLS CITY     CLEAR     50  48  93 W5        30.28S
NEBRASKA CITY    N/A     55  42  60 CALM      30.29S
PLATTSMOUTH    CLEAR     50  46  88 CALM      30.30R
$$

NEZ044-045-051>053-067-220900-
OMAHA AREA

CITY           SKY/WX    TMP DP  RH WIND       PRES   REMARKS
OMAHA EPPLEY   CLEAR     51  49  92 CALM      30.30R
BLAIR          CLEAR     53  47  78 CALM      30.29S
FREMONT        CLEAR     49  47  93 CALM      30.30S
MILLARD        CLEAR     51  50  95 CALM      30.30S
OFFUTT AFB     CLEAR     46  46 100 W2        30.29S
PLATTSMOUTH    CLEAR     50  46  88 CALM      30.30R
WAHOO          FAIR      47  45  91 NW3       30.29S
$$


USA.gov is the U.S. government's official web portal to all federal, state and local government web resources and services.